パンスターズ彗星

C/2016 R2 ( PanSTARRS )

English version
Home page
Updated on February 13, 2018

---------------------------------------------------------------------

・ プロフィール

発見日 2016年9月7日
発見光度 19.1等
発見者 Pan-STARRS 1 telescope (Haleakala)

・ 写真集

・ 軌道要素

Epoch 2018 May 2.0 TT = JDT 2458240.5
T 2018 May  9.58547 TT                                  MPCW
q   2.6023376            (2000.0)            P               Q
z  +0.0014060      Peri.   33.19316     -0.14727664     -0.52443204
 +/-0.0000004      Node    80.56888     +0.61561436     -0.71222373
e   0.9963412      Incl.   58.22352     +0.77416313     +0.46659232
From 1717 observations 2016 Aug. 30-2018 Jan. 25, mean residual 0".4.

・ 星図

・ 光度変化

        m1 = 5.0 + 5 logΔ + 10.0 log r

---------------------------------------------------------------------

軌道要素はM.P.E.C. 2018-B155に掲載されたものです。
星図はステラナビゲータ Ver.10 (アストロアーツ) で作成したものです。
光度グラフはComet for Windowsで作成したものです。

---------------------------------------------------------------------

Copyright(C) Seiichi Yoshida (comet@aerith.net). All rights reserved.